[[{"header":{"parameterUnit":"m.s-1","parameterCategory":1,"la1":30.2991,"la2":30.254,"lo1":-89.0895,"lo2":-89.0444,"dx":0.0017,"dy":0.0017,"nx":28,"ny":28,"refTime":"2022-11-16T03:00:00:Z","depth":0,"parameterNumber":2,"parameterNumberName":"U-component_of_WINDS"},"data":[0,0,0,0,0,0,0,0,0,0,0,0,0,0,0,0,0,0,0,0,0,0,0,0,0,0,0,0,0,0,0,0,0,0,0,0,0,0,0,0,0,0,0,0,0,0,0,0,0,0,0,0,0,0,0,0,0,0,-1.4015,-1.4015,0,-1.4059,-1.406,-1.406,-1.4038,-1.4037,-1.4035,-1.4034,-1.408,-1.4083,-1.4085,0,0,0,0,0,0,0,0,0,0,0,0,0,-1.3908,-1.391,-1.4015,-1.4015,-1.4016,-1.4059,-1.406,-1.4061,-1.4038,-1.4037,-1.4035,-1.4034,-1.408,-1.4082,-1.4085,0,0,0,0,0,0,0,0,0,0,0,0,0,-1.3954,-1.3911,-1.4014,-1.401,-1.401,-1.4059,-1.406,-1.4061,-1.4038,-1.4037,-1.4035,-1.4033,-1.4079,-1.4082,-1.4086,-1.4142,0,0,-1.4096,-1.4098,0,0,0,0,0,0,0,0,-1.3951,-1.3958,-1.401,-1.401,-1.401,-1.4041,-1.4039,-1.4088,-1.4039,-1.4027,-1.4034,-1.4032,-1.4069,-1.4073,-1.4085,-1.4145,-1.4146,-1.4096,-1.4099,-1.41,-1.4101,0,0,0,0,0,0,0,-1.3948,-1.3956,-1.4032,-1.4011,-1.4011,-1.4005,-1.4009,-1.4048,-1.4057,-1.4028,-1.4027,-1.4032,-1.4069,-1.4082,-1.4086,-1.4147,-1.4096,-1.4099,-1.4102,-1.4103,-1.4254,-1.4256,0,0,0,0,0,0,-1.3945,-1.3953,-1.4031,-1.4034,-1.3976,-1.4008,-1.4013,-1.4033,-1.4057,-1.4059,-1.4034,-1.4031,-1.4077,-1.4082,-1.4088,-1.4156,-1.41,-1.4103,-1.4105,-1.4252,-1.4255,-1.4257,0,0,0,0,0,0,-1.3943,-1.3952,-1.4029,-1.3993,-1.4002,-1.4012,-1.4034,-1.4035,-1.4048,-1.4061,-1.4063,-1.4046,-1.4076,-1.4083,-1.4129,-1.4157,-1.4105,-1.4108,-1.425,-1.4253,-1.4256,-1.4292,0,0,0,0,0,0,-1.394,-1.3952,-1.3974,-1.3994,-1.4004,-1.407,-1.4036,-1.4037,-1.4054,-1.4051,-1.4073,-1.4075,-1.4075,-1.4124,-1.4132,-1.4161,-1.4111,-1.4247,-1.4251,-1.4255,-1.4288,-1.4296,-1.4302,0,0,0,0,0,-1.3936,-1.3983,-1.3975,-1.3985,-1.4032,-1.4072,-1.4078,-1.4077,-1.4057,-1.4079,-1.4087,-1.4074,-1.4152,-1.4129,-1.4138,-1.4168,-1.4246,-1.425,-1.4254,-1.4285,-1.4294,-1.4302,0,0,0,0,0,0,-1.3966,-1.3985,-1.3977,-1.4031,-1.405,-1.4068,-1.4096,-1.4086,-1.4111,-1.4107,-1.4105,-1.411,-1.4158,-1.4167,-1.4141,-1.4224,-1.4196,-1.4202,-1.4216,-1.4225,-1.4231,-1.4229,-1.4114,0,0,0,0,0,-1.3979,-1.401,-1.4024,-1.4071,-1.408,-1.4086,-1.4103,-1.4101,-1.412,-1.4128,-1.4139,-1.4159,-1.4187,-1.4206,-1.4233,-1.4289,-1.4293,-1.4314,-1.4321,-1.4327,-1.4333,-1.4362,-1.4371,-1.4271,-1.4271,-1.4271,0,0,-1.4006,-1.402,-1.404,-1.4077,-1.4091,-1.4123,-1.4093,-1.4128,-1.4151,-1.4133,-1.4178,-1.4186,-1.4207,-1.4258,-1.4281,-1.4268,-1.4361,-1.4332,-1.4336,-1.4339,-1.4367,-1.4377,-1.4385,-1.4274,-1.4273,-1.4273,0,0,-1.4072,-1.4085,-1.4125,-1.414,-1.4161,-1.4165,-1.4174,-1.4193,-1.4198,-1.4242,-1.4229,-1.4256,-1.4306,-1.4321,-1.4335,-1.4405,-1.4394,-1.4413,-1.445,-1.4479,-1.4486,-1.4493,-1.4518,-1.4527,-1.4419,-1.4419,-1.4419,0,-1.4103,-1.415,-1.4147,-1.4182,-1.4199,-1.4183,-1.4223,-1.4237,-1.4267,-1.4278,-1.4262,-1.4324,-1.4337,-1.4391,-1.4407,-1.4419,-1.443,-1.4412,-1.4485,-1.4493,-1.4499,-1.4523,-1.4532,-1.4421,-1.4421,-1.4421,-1.4421,0,-1.4187,-1.4219,-1.4249,-1.4277,-1.4297,-1.4334,-1.4337,-1.4357,-1.4352,-1.4357,-1.4401,-1.4416,-1.4445,-1.4457,-1.4453,-1.4511,-1.4501,-1.4486,-1.4458,-1.4511,-1.4533,-1.4542,-1.4424,-1.4424,-1.4423,-1.4422,0,0,-1.4274,-1.4299,-1.431,-1.4323,-1.4344,-1.4369,-1.4406,-1.4434,-1.4451,-1.4471,-1.4502,-1.4543,-1.4528,-1.4544,-1.4541,-1.4566,-1.462,-1.4547,-1.4548,-1.4561,-1.4683,-1.4696,-1.4706,-1.4612,-1.4614,-1.4615,-1.4682,0,-1.4341,-1.4405,-1.4403,-1.4462,-1.4492,-1.4477,-1.4508,-1.4525,-1.453,-1.4555,-1.456,-1.459,-1.4568,-1.4577,-1.4601,-1.4608,-1.4645,-1.4603,-1.464,-1.4642,-1.4636,-1.4718,-1.4731,-1.4794,-1.469,-1.4692,-1.4693,0,-1.4429,-1.4452,-1.4514,-1.4531,-1.4543,-1.4572,-1.4597,-1.4622,-1.4639,-1.4641,-1.4658,-1.4651,-1.4687,-1.4657,-1.4706,-1.4678,-1.4692,-1.4698,-1.47,-1.4704,-1.4671,-1.4725,-1.4814,-1.4823,-1.4706,-1.4705,-1.4704,0,-1.4487,-1.4533,-1.4576,-1.4587,-1.4607,-1.4628,-1.4637,-1.4653,-1.467,-1.4692,-1.4702,-1.4728,-1.4742,-1.4762,-1.4761,-1.474,-1.4811,-1.4781,-1.4813,-1.4814,-1.483,-1.483,-1.4923,-1.4838,-1.4838,-1.4838,-1.4838,0,-1.4563,-1.4602,-1.4603,-1.4629,-1.4672,-1.4668,-1.471,-1.4717,-1.4731,-1.4758,-1.4746,-1.4772,-1.4769,-1.4795,-1.4794,-1.4835,-1.4841,-1.4843,-1.4843,-1.4845,-1.4845,-1.4856,-1.4851,-1.4841,-1.484,-1.484,-1.4839,0,-1.4636,-1.4638,-1.4684,-1.4699,-1.4703,-1.4734,-1.4746,-1.4771,-1.4774,-1.4809,-1.4817,-1.4822,-1.4851,-1.4852,-1.4886,-1.4885,-1.4935,-1.4929,-1.4929,-1.4928,-1.4961,-1.4958,-1.5065,-1.5079,-1.4985,-1.4985,-1.4986,0,-1.4685,-1.4714,-1.4732,-1.4749,-1.476,-1.4788,-1.4805,-1.4801,-1.4819,-1.4841,-1.4863,-1.4891,-1.4914,-1.4961,-1.4968,-1.4993,-1.4988,-1.5024,-1.4992,-1.4993,-1.4989,-1.4988,-1.4991,-1.5031,-1.5032,-1.5033,-1.5033,0,-1.4772,-1.4771,-1.4796,-1.4821,-1.4841,-1.4861,-1.4879,-1.4894,-1.4892,-1.4913,-1.4943,-1.496,-1.4994,-1.5022,-1.5046,-1.5055,-1.5044,-1.5043,-1.5052,-1.5055,-1.5054,-1.5055,-1.4947,-1.5041,-1.504,-1.504,-1.5039,-1.5039,-1.4834,-1.486,-1.4876,-1.4903,-1.4916,-1.4933,-1.4957,-1.4963,-1.4988,-1.5015,-1.5011,-1.5044,-1.506,-1.5091,-1.5102,-1.5127,-1.5115,-1.5128,-1.5131,-1.5134,-1.5138,-1.5049,-1.5132,-1.5131,-1.5131,-1.5131,-1.5131,0,-1.4921,-1.493,-1.4955,-1.4981,-1.5003,-1.4989,-1.5008,-1.5027,-1.5057,-1.5072,-1.5094,-1.5128,-1.5154,-1.5162,-1.5187,-1.5206,-1.5202,-1.5213,-1.5212,-1.5214,-1.5148,-1.5138,-1.5216,-1.5216,-1.5216,-1.5216,-1.5216,-1.5216,-1.4968,-1.501,-1.5011,-1.5058,-1.5067,-1.51,-1.5111,-1.5126,-1.5139,-1.5177,-1.5199,-1.5203,-1.5215,-1.5241,-1.5265,-1.5266,-1.5276,-1.529,-1.5289,-1.5227,-1.5219,-1.5211,-1.5201,-1.5292,-1.5292,-1.5354,-1.5354,-1.5355]},{"header":{"parameterUnit":"m.s-1","parameterCategory":1,"la1":30.2991,"la2":30.254,"lo1":-89.0895,"lo2":-89.0444,"dx":0.0017,"dy":0.0017,"nx":28,"ny":28,"refTime":"2022-11-16T03:00:00:Z","depth":0,"parameterNumber":3,"parameterNumberName":"V-component_of_WINDS"},"data":[0,0,0,0,0,0,0,0,0,0,0,0,0,0,0,0,0,0,0,0,0,0,0,0,0,0,0,0,0,0,0,0,0,0,0,0,0,0,0,0,0,0,0,0,0,0,0,0,0,0,0,0,0,0,0,0,0,0,-7.0995,-7.0996,0,-7.1092,-7.1093,-7.1094,-7.1037,-7.1035,-7.1032,-7.1029,-7.1122,-7.1127,-7.1132,0,0,0,0,0,0,0,0,0,0,0,0,0,-7.0756,-7.0761,-7.0995,-7.0996,-7.0998,-7.1092,-7.1093,-7.1094,-7.1038,-7.1034,-7.1031,-7.1028,-7.112,-7.1126,-7.1132,0,0,0,0,0,0,0,0,0,0,0,0,0,-7.0857,-7.0763,-7.0995,-7.0981,-7.0981,-7.1091,-7.1093,-7.1095,-7.1038,-7.1034,-7.103,-7.1026,-7.1119,-7.1126,-7.1133,-7.1261,0,0,-7.1156,-7.1159,0,0,0,0,0,0,0,0,-7.0851,-7.0866,-7.0982,-7.0982,-7.0982,-7.1048,-7.1043,-7.115,-7.1039,-7.1016,-7.1029,-7.1024,-7.1101,-7.1109,-7.1136,-7.1266,-7.127,-7.1157,-7.1161,-7.1165,-7.1167,0,0,0,0,0,0,0,-7.0844,-7.0861,-7.1033,-7.0984,-7.0984,-7.0968,-7.0978,-7.1063,-7.108,-7.1018,-7.1014,-7.1027,-7.11,-7.1129,-7.1138,-7.1271,-7.1157,-7.1163,-7.1168,-7.1171,-7.151,-7.1515,0,0,0,0,0,0,-7.0839,-7.0856,-7.103,-7.1036,-7.0906,-7.0976,-7.0987,-7.1031,-7.1079,-7.1082,-7.103,-7.1024,-7.1118,-7.1129,-7.1141,-7.1294,-7.1165,-7.1172,-7.1176,-7.1506,-7.1511,-7.1516,0,0,0,0,0,0,-7.0834,-7.0855,-7.1026,-7.0945,-7.0966,-7.0984,-7.1035,-7.1035,-7.1064,-7.1088,-7.109,-7.1057,-7.1115,-7.113,-7.1232,-7.1297,-7.1175,-7.1182,-7.1501,-7.1508,-7.1514,-7.1602,0,0,0,0,0,0,-7.0828,-7.0854,-7.0904,-7.0947,-7.097,-7.1118,-7.1039,-7.104,-7.1078,-7.1071,-7.1114,-7.1117,-7.1113,-7.1221,-7.124,-7.1305,-7.1188,-7.1495,-7.1504,-7.1512,-7.1594,-7.1611,-7.1626,0,0,0,0,0,-7.0819,-7.0924,-7.0907,-7.0928,-7.1034,-7.1122,-7.1135,-7.113,-7.1084,-7.1134,-7.1149,-7.1116,-7.1287,-7.1232,-7.1252,-7.1321,-7.1491,-7.1501,-7.1511,-7.1586,-7.1608,-7.1626,0,0,0,0,0,0,-7.0886,-7.0929,-7.0911,-7.1033,-7.1075,-7.1112,-7.1175,-7.1153,-7.1207,-7.1197,-7.1187,-7.1197,-7.1304,-7.1322,-7.1261,-7.1447,-7.1381,-7.1396,-7.1431,-7.1452,-7.1468,-7.1461,-7.1194,0,0,0,0,0,-7.0916,-7.0986,-7.1018,-7.1122,-7.1145,-7.1157,-7.1194,-7.1187,-7.1229,-7.1246,-7.1268,-7.1308,-7.1371,-7.1412,-7.1471,-7.1596,-7.1604,-7.1653,-7.1669,-7.1682,-7.1695,-7.1762,-7.1784,-7.1549,-7.1549,-7.1549,0,0,-7.0976,-7.1008,-7.1052,-7.1137,-7.1168,-7.1239,-7.1171,-7.1249,-7.1301,-7.1257,-7.1355,-7.1373,-7.1417,-7.1531,-7.1582,-7.155,-7.1762,-7.1695,-7.1706,-7.1711,-7.1775,-7.1797,-7.1817,-7.1556,-7.1555,-7.1554,0,0,-7.1123,-7.1154,-7.1245,-7.1278,-7.1328,-7.1335,-7.1357,-7.1398,-7.1409,-7.1508,-7.1476,-7.1537,-7.1645,-7.1678,-7.1709,-7.1869,-7.184,-7.1888,-7.1973,-7.2038,-7.2057,-7.2073,-7.213,-7.2151,-7.19,-7.1901,-7.1901,0,-7.1191,-7.1299,-7.1294,-7.1375,-7.1412,-7.1377,-7.1468,-7.15,-7.1565,-7.1591,-7.1554,-7.169,-7.1717,-7.1838,-7.1877,-7.1903,-7.1927,-7.1883,-7.2055,-7.2071,-7.2086,-7.214,-7.2162,-7.1906,-7.1905,-7.1905,-7.1904,0,-7.1381,-7.1456,-7.1523,-7.1589,-7.1634,-7.1719,-7.1725,-7.1771,-7.176,-7.1771,-7.1871,-7.1903,-7.1968,-7.1996,-7.1984,-7.2115,-7.2094,-7.2056,-7.199,-7.2114,-7.2165,-7.2186,-7.1914,-7.1912,-7.191,-7.1909,0,0,-7.1572,-7.1635,-7.166,-7.169,-7.1742,-7.1799,-7.1882,-7.1947,-7.1987,-7.2032,-7.2101,-7.2194,-7.216,-7.2195,-7.2187,-7.2245,-7.2369,-7.22,-7.2201,-7.223,-7.2515,-7.2543,-7.2568,-7.2351,-7.2355,-7.2358,-7.2511,0,-7.1722,-7.187,-7.1868,-7.2004,-7.2073,-7.2041,-7.2113,-7.2152,-7.2164,-7.2223,-7.2235,-7.2301,-7.2251,-7.2272,-7.2328,-7.2343,-7.2426,-7.2331,-7.2413,-7.2416,-7.2404,-7.2594,-7.2624,-7.2768,-7.2531,-7.2535,-7.2537,0,-7.1917,-7.1972,-7.2117,-7.2159,-7.2188,-7.2253,-7.2313,-7.237,-7.2413,-7.2417,-7.2457,-7.244,-7.2523,-7.2454,-7.2567,-7.2503,-7.2536,-7.2548,-7.2554,-7.2561,-7.2485,-7.2607,-7.2813,-7.2835,-7.2568,-7.2566,-7.2563,0,-7.2043,-7.2153,-7.2253,-7.228,-7.2331,-7.2378,-7.2401,-7.244,-7.248,-7.2532,-7.2557,-7.2617,-7.2649,-7.2695,-7.2694,-7.2644,-7.2809,-7.274,-7.2814,-7.2814,-7.285,-7.2848,-7.3065,-7.2871,-7.2871,-7.2871,-7.287,0,-7.2211,-7.23,-7.2311,-7.2372,-7.2471,-7.2467,-7.2564,-7.2582,-7.2617,-7.2681,-7.2656,-7.2715,-7.2711,-7.277,-7.277,-7.2864,-7.2878,-7.2883,-7.2882,-7.2886,-7.2885,-7.2908,-7.2898,-7.2876,-7.2875,-7.2874,-7.2873,0,-7.2368,-7.2379,-7.2486,-7.2527,-7.2539,-7.261,-7.2644,-7.2702,-7.2712,-7.2793,-7.2811,-7.2827,-7.2896,-7.29,-7.2979,-7.2978,-7.3092,-7.308,-7.3079,-7.3077,-7.315,-7.3143,-7.3389,-7.3421,-7.3207,-7.3209,-7.3211,0,-7.2475,-7.2543,-7.2592,-7.2634,-7.2661,-7.2729,-7.277,-7.2767,-7.2811,-7.2865,-7.2916,-7.2983,-7.3037,-7.3149,-7.3165,-7.3225,-7.3214,-7.3296,-7.3223,-7.3225,-7.3216,-7.3212,-7.3218,-7.3311,-7.3313,-7.3315,-7.3316,0,-7.2663,-7.2665,-7.2727,-7.2791,-7.2841,-7.289,-7.2935,-7.2971,-7.2973,-7.3023,-7.3095,-7.3137,-7.3219,-7.3285,-7.3344,-7.3365,-7.3342,-7.334,-7.336,-7.3364,-7.3361,-7.3364,-7.3118,-7.3334,-7.3332,-7.3331,-7.333,-7.3329,-7.2799,-7.2858,-7.2903,-7.2971,-7.3006,-7.305,-7.3107,-7.3125,-7.3185,-7.3253,-7.3247,-7.3327,-7.3367,-7.3444,-7.347,-7.3531,-7.3503,-7.3532,-7.3539,-7.3547,-7.3555,-7.3352,-7.3541,-7.3541,-7.354,-7.354,-7.354,0,-7.2986,-7.3013,-7.3077,-7.3143,-7.3197,-7.3172,-7.3221,-7.3268,-7.3339,-7.3379,-7.3433,-7.3515,-7.358,-7.3602,-7.3665,-7.3709,-7.3699,-7.3725,-7.3722,-7.3727,-7.3576,-7.3553,-7.3732,-7.3732,-7.3732,-7.3732,-7.3732,-7.3732,-7.309,-7.319,-7.3197,-7.3313,-7.3339,-7.3419,-7.3449,-7.3488,-7.3521,-7.3615,-7.3669,-7.3684,-7.3717,-7.3781,-7.3839,-7.3844,-7.3868,-7.3899,-7.3899,-7.3757,-7.3738,-7.3719,-7.3697,-7.3904,-7.3904,-7.4044,-7.4046,-7.4047]}]]